Weather reports worldwide

Advertisment
Thomastown, United Kingdom (3901): temperature & dewpoint: 18.03.2019 16:00:00 - 24.03.2019 16:00:00 (GMT)Thomastown, United Kingdom (3901): temperature -20cm & temperature -100cm: 18.03.2019 16:00:00 - 24.03.2019 16:00:00 (GMT)Thomastown, United Kingdom (3901): wind speed & gusts: 18.03.2019 16:00:00 - 24.03.2019 16:00:00 (GMT)Thomastown, United Kingdom (3901): wind direction: 18.03.2019 16:00:00 - 24.03.2019 16:00:00 (GMT)Thomastown, United Kingdom (3901): reduced air pressure: 18.03.2019 16:00:00 - 24.03.2019 16:00:00 (GMT)Thomastown, United Kingdom (3901): visibility: 18.03.2019 16:00:00 - 24.03.2019 16:00:00 (GMT)Thomastown, United Kingdom (3901): sunshine duration: 18.03.2019 16:00:00 - 24.03.2019 16:00:00 (GMT)Thomastown, United Kingdom (3901): precipitation: 18.03.2019 16:00:00 - 24.03.2019 16:00:00 (GMT)
Date & Time tt [°C] td [°C] tt -20cm [°C] tt -100cm [°C] ff [km/h] ff [kn] fx [km/h] fx [kn] dd ppp [hPa] vv [km] sd [min] rr [mm]
24.03.2019 16:00:00 9,1 3,8 - - 31 17 55 30 WNW 1030,1 16 6 0,0
24.03.2019 15:00:00 9,0 4,9 - - 26 14 55 30 WNW 1030,1 14 0 0,0
24.03.2019 14:00:00 8,5 5,7 - - 26 14 55 30 WNW 1030,1 15 6 0,0
24.03.2019 13:00:00 9,4 4,6 - - 28 15 54 29 W 1030,0 18 48 0,0
24.03.2019 12:00:00 7,6 4,9 - - 28 15 50 27 W 1030,3 40 12 0,6
24.03.2019 11:00:00 8,1 4,5 - - 18 10 - - W 1030,4 14 12 0,2
24.03.2019 10:00:00 7,8 3,9 - - 22 12 - - WSW 1030,2 30 54 0,0
24.03.2019 09:00:00 6,3 3,1 9,4 7,7 18 10 - - WSW 1030,4 30 48 0,0
24.03.2019 08:00:00 4,9 2,4 - - 18 10 - - WSW 1030,2 45 54 0,0
24.03.2019 07:00:00 3,7 1,8 - - 11 6 - - WSW 1030,5 45 0 0,0
24.03.2019 06:00:00 3,7 1,6 - - 11 6 - - WSW 1030,8 45 0 0,0
24.03.2019 05:00:00 3,2 1,4 - - 9 5 - - SSW 1031,1 40 0 0,0
24.03.2019 04:00:00 3,2 1,1 - - 8 4 - - SSW 1031,3 50 0 0,0
24.03.2019 03:00:00 3,1 0,9 - - 9 5 - - SW 1031,5 40 0 0,0
24.03.2019 02:00:00 3,5 1,0 - - 11 6 - - SW 1031,6 40 0 0,0
24.03.2019 01:00:00 3,3 0,8 - - 8 4 - - WSW 1032,2 40 0 0,0
24.03.2019 00:00:00 3,7 0,9 - - 9 5 - - S 1032,7 35 - 0,0
23.03.2019 23:00:00 4,1 1,2 - - 9 5 - - SW 1032,9 35 0 0,0
23.03.2019 22:00:00 4,8 1,5 - - 8 4 - - WSW 1033,4 45 0 0,0
23.03.2019 21:00:00 5,4 2,0 - - 4 2 - - W 1033,2 35 0 0,0
23.03.2019 20:00:00 6,2 2,2 - - 4 2 - - W 1033,2 30 0 0,0
23.03.2019 19:00:00 6,7 1,9 - - 0 0 - - N 1032,9 40 0 0,0
23.03.2019 18:00:00 7,5 1,8 - - 11 6 - - WNW 1033,2 30 0 0,0
23.03.2019 17:00:00 8,3 1,5 - - 9 5 - - WSW 1033,1 40 0 0,0
23.03.2019 16:00:00 8,4 1,5 - - 8 4 - - W 1033,0 35 0 0,0
23.03.2019 15:00:00 8,4 1,7 - - 13 7 - - WNW 1033,3 35 0 0,0
23.03.2019 14:00:00 8,1 2,4 - - 9 5 - - W 1033,6 28 0 0,0
23.03.2019 13:00:00 7,7 3,5 - - 8 4 - - W 1033,9 30 18 0,0
23.03.2019 12:00:00 8,6 3,3 - - 9 5 - - WSW 1033,7 22 60 0,0
23.03.2019 11:00:00 7,8 3,0 - - 8 4 - - W 1033,5 27 24 0,0
23.03.2019 10:00:00 6,9 2,7 - - 8 4 - - WSW 1033,3 21 48 0,0
23.03.2019 09:00:00 5,2 3,3 9,7 7,7 8 4 - - S 1033,0 24 48 0,2
23.03.2019 08:00:00 2,9 2,0 - - 8 4 - - SSE 1032,5 19 0 0,0
23.03.2019 07:00:00 2,3 1,5 - - 4 2 - - S 1031,9 20 0 0,0
23.03.2019 06:00:00 2,2 0,6 - - 4 2 - - NNE 1031,1 17 0 0,0
23.03.2019 05:00:00 3,6 1,6 - - 11 6 - - W 1030,3 21 0 0,0
23.03.2019 04:00:00 4,2 1,5 - - 11 6 - - W 1030,1 25 0 0,0
23.03.2019 03:00:00 4,0 1,0 - - 11 6 - - W 1029,9 24 0 0,0
23.03.2019 02:00:00 4,0 1,0 - - 2 1 - - S 1029,5 16 0 0,0
23.03.2019 01:00:00 4,2 1,8 - - 5 3 - - W 1028,9 18 0 0,2
23.03.2019 00:00:00 4,3 1,8 - - 8 4 - - WSW 1028,3 19 - 0,0
22.03.2019 23:00:00 3,9 1,8 - - 2 1 - - E 1027,7 19 0 0,0
22.03.2019 22:00:00 4,7 2,3 - - 13 7 - - WSW 1026,9 20 0 0,2
22.03.2019 21:00:00 5,6 2,2 - - 13 7 - - WSW 1026,2 20 0 0,0
22.03.2019 20:00:00 6,3 3,4 - - 18 10 - - WSW 1025,4 22 0 0,2
22.03.2019 19:00:00 7,2 2,5 - - 13 7 - - W 1024,6 26 0 0,0
22.03.2019 18:00:00 8,3 0,4 - - 18 10 48 26 W 1023,3 24 6 0,0
22.03.2019 17:00:00 8,9 1,5 - - 22 12 - - W 1022,6 20 18 0,0
22.03.2019 16:00:00 9,8 1,7 - - 24 13 - - WNW 1021,7 27 54 0,0
22.03.2019 15:00:00 10,7 2,9 - - 18 10 55 30 W 1020,9 40 30 0,0
22.03.2019 14:00:00 9,9 4,6 - - 24 13 46 25 W 1020,1 29 18 0,0
22.03.2019 13:00:00 10,2 5,7 - - 22 12 - - SW 1019,4 14 24 0,0
22.03.2019 12:00:00 8,6 6,2 - - 18 10 - - WSW 1019,2 18 0 0,0
22.03.2019 11:00:00 8,5 6,9 - - 15 8 - - W 1018,7 16 0 1,6
22.03.2019 10:00:00 8,9 8,5 - - 21 11 - - S 1017,5 10 0 0,0
22.03.2019 09:00:00 8,8 8,2 9,7 7,7 24 13 - - S 1017,2 8 0 0,2
22.03.2019 08:00:00 9,0 8,1 - - 21 11 - - S 1017,2 11 0 0,0
22.03.2019 07:00:00 9,3 7,8 - - 22 12 - - S 1017,6 11 0 0,0
22.03.2019 06:00:00 9,4 7,9 - - 26 14 - - S 1018,3 8 0 0,0
22.03.2019 05:00:00 9,4 8,2 - - 26 14 54 29 S 1018,3 8 0 0,0
22.03.2019 04:00:00 10,4 7,7 - - 31 17 57 31 S 1018,6 50 0 0,0
22.03.2019 03:00:00 10,3 8,1 - - 29 16 50 27 S 1019,2 45 0 0,0
22.03.2019 02:00:00 10,3 8,1 - - 29 16 50 27 S 1019,6 50 0 0,0
22.03.2019 01:00:00 10,7 7,9 - - 29 16 46 25 S 1020,5 50 0 0,0
22.03.2019 00:00:00 10,8 8,2 - - 24 13 - - SSW 1021,7 50 - 0,0
21.03.2019 23:00:00 11,0 8,5 - - 22 12 - - SSW 1022,6 50 0 0,0
21.03.2019 22:00:00 11,3 8,7 - - 15 8 - - S 1023,5 25 0 0,0
21.03.2019 21:00:00 11,1 8,2 - - 26 14 - - SE 1023,7 21 0 0,0
21.03.2019 20:00:00 11,1 8,5 - - 21 11 - - S 1025,2 25 0 0,0
21.03.2019 19:00:00 10,8 8,0 - - 13 7 - - SSE 1025,6 20 0 0,0
21.03.2019 18:00:00 11,6 8,5 - - 15 8 - - S 1026,1 30 0 0,0
21.03.2019 17:00:00 11,9 9,1 - - 18 10 - - S 1026,9 40 0 0,0
21.03.2019 16:00:00 11,8 8,9 - - 18 10 - - S 1027,1 40 0 0,0
21.03.2019 15:00:00 12,2 9,2 - - 18 10 - - SSW 1028,1 50 0 0,0
21.03.2019 14:00:00 12,0 8,9 - - 18 10 - - SSW 1028,8 50 0 0,0
21.03.2019 13:00:00 12,2 10,1 - - 21 11 - - S 1029,2 45 24 0,0
21.03.2019 12:00:00 12,4 10,2 - - 26 14 - - SSW 1029,5 45 42 0,0
21.03.2019 11:00:00 11,5 9,9 - - 21 11 - - SSW 1029,7 40 0 0,0
21.03.2019 10:00:00 11,0 10,3 - - 22 12 - - S 1029,7 30 0 0,0
21.03.2019 09:00:00 10,6 9,7 9,2 7,5 15 8 - - SSW 1029,5 18 0 0,0
21.03.2019 08:00:00 10,6 9,5 - - 15 8 - - SSW 1029,1 17 0 0,0
21.03.2019 07:00:00 10,2 9,1 - - 15 8 - - SSW 1028,6 45 0 0,0
21.03.2019 06:00:00 10,5 9,1 - - 13 7 - - SSW 1028,2 40 0 0,0
21.03.2019 05:00:00 10,5 8,8 - - 18 10 - - SW 1027,5 45 0 0,0
21.03.2019 04:00:00 10,6 8,7 - - 15 8 - - SW 1027,1 50 0 0,0
21.03.2019 03:00:00 10,5 8,9 - - 18 10 - - SW 1027,2 50 0 0,0
21.03.2019 02:00:00 10,5 9,4 - - 18 10 - - WSW 1027,2 11 0 0,0
21.03.2019 01:00:00 10,8 9,3 - - 16 9 - - SW 1027,1 13 0 0,0
21.03.2019 00:00:00 10,7 9,1 - - 16 9 - - SSW 1027,3 30 - 0,0
20.03.2019 23:00:00 10,8 9,1 - - 9 5 - - S 1027,4 27 0 0,0
20.03.2019 22:00:00 10,7 9,3 - - 16 9 - - S 1027,2 25 0 0,0
20.03.2019 21:00:00 10,4 8,7 - - 9 5 - - S 1026,9 29 0 0,0
20.03.2019 20:00:00 11,9 9,3 - - 13 7 - - SSW 1026,6 30 0 0,0
20.03.2019 19:00:00 12,1 10,5 - - 11 6 - - S 1026,2 50 0 0,0
20.03.2019 18:00:00 12,4 11,3 - - 15 8 - - S 1025,9 50 0 0,0
20.03.2019 17:00:00 13,7 11,3 - - 15 8 - - SSW 1025,6 50 0 0,0
20.03.2019 16:00:00 13,9 11,5 - - 18 10 - - S 1025,4 50 0 0,0
20.03.2019 15:00:00 13,7 11,1 - - 16 9 - - S 1025,6 50 0 0,0
20.03.2019 14:00:00 12,9 11,1 - - 22 12 - - SSW 1026,3 50 0 0,0
20.03.2019 13:00:00 12,2 10,7 - - 21 11 - - SSW 1027,0 50 0 0,0
20.03.2019 12:00:00 11,2 10,5 - - 21 11 - - S 1026,8 35 12 0,0
20.03.2019 11:00:00 10,7 10,3 - - 18 10 - - S 1026,6 20 0 0,0
20.03.2019 10:00:00 9,8 9,7 - - 16 9 - - S 1027,2 16 0 0,0
20.03.2019 09:00:00 9,4 9,2 8,7 7,5 21 11 - - S 1027,2 19 0 0,0
20.03.2019 08:00:00 8,8 8,7 - - 21 11 - - SSW 1026,9 45 0 0,0
20.03.2019 07:00:00 8,6 8,5 - - 13 7 - - S 1026,8 9 0 0,0
20.03.2019 06:00:00 8,6 8,5 - - 15 8 - - S 1026,4 18 0 0,0
20.03.2019 05:00:00 8,6 8,5 - - 13 7 - - S 1026,4 13 0 0,2
20.03.2019 04:00:00 8,5 8,3 - - 9 5 - - SSE 1026,6 11 0 0,0
20.03.2019 03:00:00 8,5 8,2 - - 15 8 - - S 1026,8 13 0 0,0
20.03.2019 02:00:00 9,0 8,4 - - 16 9 - - S 1026,7 40 0 0,0
20.03.2019 01:00:00 9,5 8,6 - - 13 7 - - S 1026,6 30 0 0,0
20.03.2019 00:00:00 9,5 8,2 - - 9 5 - - SSW 1026,6 50 - 0,0
19.03.2019 23:00:00 9,7 8,1 - - 11 6 - - WSW 1026,2 50 0 0,0
19.03.2019 22:00:00 9,8 8,3 - - 13 7 - - SW 1025,9 50 0 0,0
19.03.2019 21:00:00 10,4 9,0 - - 9 5 - - W 1025,8 45 0 0,0
19.03.2019 20:00:00 10,3 9,1 - - 4 2 - - SSW 1025,3 50 0 0,0
19.03.2019 19:00:00 10,3 9,0 - - 4 2 - - NE 1024,8 30 0 0,0
19.03.2019 18:00:00 10,4 8,9 - - 8 4 - - N 1024,4 22 0 0,0
19.03.2019 17:00:00 10,7 8,8 - - 8 4 - - N 1024,0 50 0 0,0
19.03.2019 16:00:00 11,9 9,3 - - 8 4 - - NNW 1023,1 50 0 0,0
19.03.2019 15:00:00 12,1 9,4 - - 18 10 - - NW 1022,7 50 24 0,0
19.03.2019 14:00:00 13,3 9,8 - - 16 9 - - W 1022,2 50 6 0,0
19.03.2019 13:00:00 12,6 10,4 - - 13 7 - - W 1021,9 35 12 0,0
19.03.2019 12:00:00 11,4 10,3 - - 8 4 - - SSW 1021,9 45 0 0,0
19.03.2019 11:00:00 10,2 9,6 - - 13 7 - - SSW 1021,9 45 0 0,0
19.03.2019 10:00:00 8,3 8,0 - - 11 6 - - SSE 1022,0 50 0 0,0
19.03.2019 09:00:00 7,7 7,4 8,2 7,4 16 9 - - S 1021,7 45 0 0,0
19.03.2019 08:00:00 7,2 6,9 - - 21 11 - - S 1021,5 35 0 0,0
19.03.2019 07:00:00 6,8 6,5 - - 16 9 - - S 1021,3 45 0 0,2
19.03.2019 06:00:00 6,6 6,2 - - 15 8 - - S 1021,5 5 0 0,0
19.03.2019 05:00:00 6,6 6,2 - - 13 7 - - S 1021,6 18 0 0,2
19.03.2019 04:00:00 6,7 6,0 - - 13 7 - - S 1021,9 17 0 0,2
19.03.2019 03:00:00 6,7 5,7 - - 5 3 - - S 1022,1 21 0 0,0
19.03.2019 02:00:00 7,1 5,2 - - 8 4 - - SW 1022,6 20 0 0,0
19.03.2019 01:00:00 7,9 6,4 - - 8 4 - - SSW 1022,7 17 0 0,0
19.03.2019 00:00:00 8,3 6,9 - - 9 5 - - WSW 1022,9 12 - 0,0
18.03.2019 23:00:00 8,2 7,5 - - 13 7 - - WSW 1022,6 12 0 0,0
18.03.2019 22:00:00 8,1 7,4 - - 5 3 - - SW 1022,5 15 0 0,0
18.03.2019 21:00:00 8,4 7,6 - - 9 5 - - WSW 1022,2 12 0 0,0
18.03.2019 20:00:00 8,5 7,6 - - 9 5 - - W 1021,8 18 0 0,0
18.03.2019 19:00:00 8,8 7,6 - - 9 5 - - W 1021,3 6 0 0,0
18.03.2019 18:00:00 9,0 7,6 - - 11 6 - - WNW 1020,6 26 0 0,0
18.03.2019 17:00:00 9,0 7,7 - - 13 7 - - WNW 1019,9 35 0 0,0
18.03.2019 16:00:00 9,4 7,7 - - 18 10 - - WNW 1019,1 30 0 0,0

tt = temperature
td = dewpoint
tt -20cm = temperature -20cm
tt -100cm = temperature -100cm
ff = wind speed
fx = gusts
dd = wind direction
ppp = reduced air pressure
vv = visibility
sd = sunshine duration
rr = precipitation

Next stations